Weather History for Alexandria, MN

Change the Weather History Date:

Wednesday, November 6, 2013

  Actual Average Record
Temperature  
Mean Temperature 32 °F -  
Max Temperature 39 °F 42 °F 64 °F (1980)
Min Temperature 25 °F 26 °F -2 °F (1991)
Degree Days  
Heating Degree Days 33    
Moisture  
Dew Point 23 °F    
Average Humidity 68    
Maximum Humidity 92    
Minimum Humidity 53    
Precipitation  
Precipitation 0.00 in - - ()
Sea Level Pressure  
Sea Level Pressure 30.15 in    
Wind  
Wind Speed 7 mph (WNW)    
Max Wind Speed 13 mph    
Max Gust Speed -    
Visibility 10 miles    
Events      
Averages and records for this station are not official NWS values.
T = Trace of Precipitation, MM = Missing Value Source: NWS Daily Summary

Daily Weather History Graph

Daily Weather History Graph

Search for Another Location

Airport:

Trip Planner

Search our weather history database for the weather conditions in past years. The results will help you decide how hot, cold, wet, or windy it might be!

Date:

Astronomy

Nov. 06, 2013 Rise Set
Actual Time 7:09 AM CST 5:00 PM CST
Civil Twilight 6:37 AM CST 5:32 PM CST
Nautical Twilight 6:02 AM CST 6:07 PM CST
Astronomical Twilight 5:27 AM CST 6:42 PM CST
Moon 10:29 AM CST (11/6) 8:01 PM CST (11/6)
Length of Visible Light 10h 54m
Length of Day
9h 51m
Waxing Crescent, 14% of the Moon is Illuminated
Nov 6
Waxing Crescent
Nov 9
First Quarter
Nov 17
Full
Nov 25
Last Quarter
Dec 2
New

Hourly Weather History & Observations

Time (CST) Temp. Windchill Dew Point Humidity Pressure Visibility Wind Dir Wind Speed Gust Speed Precip Events Conditions
12:53 AM 32.0 °F 24.8 °F 23.0 °F 69% 30.13 in 10.0 mi NNW 8.1 mph - N/A   Overcast
1:53 AM 30.9 °F 24.3 °F 23.0 °F 72% 30.13 in 10.0 mi NW 6.9 mph - N/A   Overcast
2:53 AM 30.0 °F 24.1 °F 23.0 °F 75% 30.13 in 10.0 mi NW 5.8 mph - N/A   Scattered Clouds
3:53 AM 30.0 °F 24.1 °F 21.0 °F 69% 30.13 in 10.0 mi NNW 5.8 mph - N/A   Scattered Clouds
4:53 AM 28.0 °F 21.7 °F 18.0 °F 66% 30.13 in 10.0 mi NNW 5.8 mph - N/A   Clear
5:53 AM 26.1 °F 19.4 °F 17.1 °F 69% 30.14 in 10.0 mi NW 5.8 mph - N/A   Clear
6:53 AM 25.0 °F 19.3 °F 17.1 °F 72% 30.14 in 10.0 mi NW 4.6 mph - N/A   Clear
7:53 AM 26.1 °F 20.5 °F 19.0 °F 75% 30.15 in 10.0 mi WNW 4.6 mph - N/A   Clear
8:53 AM 28.9 °F 20.4 °F 19.9 °F 69% 30.15 in 10.0 mi West 9.2 mph - N/A   Clear
9:53 AM 33.1 °F 26.1 °F 18.0 °F 54% 30.15 in 10.0 mi WNW 8.1 mph - N/A   Overcast
10:53 AM 35.1 °F 26.9 °F 19.9 °F 54% 30.15 in 10.0 mi West 11.5 mph - N/A   Overcast
11:53 AM 36.0 °F 28.0 °F 21.0 °F 55% 30.14 in 10.0 mi WNW 11.5 mph - N/A   Overcast
12:53 PM 37.9 °F 30.5 °F 21.9 °F 53% 30.13 in 10.0 mi West 11.5 mph - N/A   Overcast
1:53 PM 39.0 °F 31.4 °F 23.0 °F 53% 30.13 in 10.0 mi West 12.7 mph - N/A   Overcast
2:53 PM 39.9 °F 32.5 °F 25.0 °F 55% 30.13 in 10.0 mi West 12.7 mph - N/A   Scattered Clouds
3:53 PM 39.9 °F 34.5 °F 25.0 °F 55% 30.13 in 10.0 mi West 8.1 mph - N/A   Mostly Cloudy
4:53 PM 37.9 °F 34.4 °F 26.1 °F 62% 30.14 in 10.0 mi West 4.6 mph - N/A   Overcast
5:53 PM 36.0 °F 32.1 °F 25.0 °F 64% 30.14 in 10.0 mi WSW 4.6 mph - N/A   Overcast
6:53 PM 33.1 °F 28.7 °F 25.0 °F 72% 30.16 in 10.0 mi West 4.6 mph - N/A   Overcast
7:53 PM 32.0 °F 26.4 °F 25.0 °F 75% 30.17 in 10.0 mi West 5.8 mph - N/A   Clear
8:53 PM 30.0 °F 25.2 °F 25.0 °F 82% 30.17 in 10.0 mi West 4.6 mph - N/A   Clear
9:53 PM 32.0 °F 28.7 °F 27.0 °F 82% 30.18 in 10.0 mi WNW 3.5 mph - N/A   Clear
10:53 PM 28.9 °F 23.9 °F 26.1 °F 89% 30.19 in 10.0 mi West 4.6 mph - N/A   Clear
11:53 PM 28.0 °F 24.2 °F 26.1 °F 92% 30.20 in 10.0 mi West 3.5 mph - N/A   Clear